Regional Weather Roundup
Issued by NWS Newport/Morehead, NC

Current Version | Previous Version | Text Only | Print | Product List | Glossary Off
Versions: 1 2 3 4 5 6 7 8 9 10 11 12 13 14 15 16 17 18 19 20 21 22 23 24 25 26 27 28 29 30 31 32 33 34 35 36 37 38 39 40 41 42 43 44 45 46 47 48 49 50
000 ASUS42 KMHX 192226 RWRMHX WEATHER ROUNDUP FOR EASTERN NORTH CAROLINA NATIONAL WEATHER SERVICE NEWPORT/MOREHEAD CITY NC 500 PM EST MON FEB 19 2018 NOTE: "FAIR" INDICATES FEW OR NO CLOUDS BELOW 12,000 FEET WITH NO SIGNIFICANT WEATHER AND/OR OBSTRUCTIONS TO VISIBILITY NCZ015>017-031-032-045>047-102-103-192300- NORTH COAST CITY SKY/WX TMP DP RH WIND PRES REMARKS EDENTON CLOUDY 64 61 88 CALM 30.39R ELIZABETH CITY CLOUDY 65 62 90 S9 30.38S KITTY HAWK MOCLDY N/A N/A N/A S3 30.39S MANTEO CLOUDY 59 57 91 S9 30.41S $$ NCZ045>047-081-094-103-104-192300- CENTRAL COAST CITY SKY/WX TMP DP RH WIND PRES REMARKS FRISCO CLOUDY 65 61 87 S9 30.41S $$ NCZ095-097-098-100-101-192300- SOUTHERN COAST CITY SKY/WX TMP DP RH WIND PRES REMARKS BEAUFORT FAIR 69 64 84 S8 30.39S CEDAR ISLAND NOT AVBL JACKSONVILLE CLOUDY 71 65 81 S10 30.37S PINEY ISLAND NOT AVBL WILMINGTON CLOUDY 70 65 84 S7 30.37S $$ NCZ011>013-027>030-043-044-078>080-089-090>093-098-192300- COASTAL PLAIN CITY SKY/WX TMP DP RH WIND PRES REMARKS AHOSKIE CLOUDY 50 50 100 CALM 30.40S FOG CLINTON CLOUDY 63 62 99 CALM 30.38R ELIZABETHTOWN NOT AVBL GOLDSBORO LGT RAIN 59 52 77 CALM 30.37R GREENVILLE MOCLDY 59 54 82 CALM 30.39R HAVELOCK MOCLDY 73 66 78 S12 30.39S KENANSVILLE LGT RAIN 63 61 94 CALM 30.38S FOG KINSTON CLOUDY 63 57 82 CALM 30.38S NEW BERN MOCLDY 71 63 75 S12 30.39R RICHLANDS CLOUDY 71 65 81 S9 30.37 ROCKY MOUNT CLOUDY 52 49 89 NW3 30.39S FOG WASHINGTON CLOUDY 67 59 77 CALM 30.38R WHITEVILLE CLOUDY 64 63 95 CALM 30.37R $$ AMZ130-135-150-152-154-156-158-170-250-252-270-ANZ085-086-088-633-658-670-192300- MARINE OBSERVATIONS STATION/POSITION TIME TEMP WIND PRES WAVE SWELL AIR SEA DIR/SP/G HT/PER HT/PER (UTC) (F) (DEG/KT/KT) (MB) (FT/S) (FT/S) CHESAPEAKE LIGHT NOT AVBL 64 E VA BEACH 2150 54 50 150/ 8/ 10 1030.2 3/ 9 2/ 9 DUCK 2200 62 45 180/ 14/ 18 1028.6 2 E DUCK 2200 45 N/A 3/ 6 OREGON INLET 2200 58 47 160/ 9/ 13 1029.5 13E OREGON INLT 2148 45 N/A 4/ 5 3/ 5 HATTERAS CG 2200 64 56 160/ 6/ 9 1029.6 DIAMOND BUOY 2210 70 71 160/ 16/ 19 1030.3 CAPE LOOKOUT 2200 170/ 8/ 8 1029.4 BEAUFORT LAB 2200 63 54 170/ 5/ 7 1029.1 30 SE NEW RVR IN 2108 70 67 170/ 8/ 12 1029.0 30 SE NEW RVR IN 2200 67 N/A 5/ 6 27 SE WRIGHTSVLE NOT AVBL 5 SE WRIGHTSVLE 2208 60 54 190/ 6/ 14 1028.4 225 S CAPE HAT 2150 71 73 100/ 14/ 16 1029.6 5/ 8 3/ 8 41 SE CHARLESTON 2210 71 68 130/ 4/ 4 1027.5 $$

USA.gov is the U.S. government's official web portal to all federal, state and local government web resources and services.